Weather History for Idabel, OK

Change the Weather History Date:

Friday, May 24, 2013

  Actual Average (KDEQ) Record (KDEQ)
Temperature  
Mean Temperature 73 °F 72 °F  
Max Temperature 80 °F 83 °F 94 °F (1958)
Min Temperature 66 °F 61 °F 48 °F (1940)
Degree Days  
Heating Degree Days 0 0  
Month to date heating degree days 21  
Since 1 July heating degree days 3042  
Cooling Degree Days 8 7  
Month to date cooling degree days 114  
Year to date cooling degree days 161  
Growing Degree Days 23 (Base 50)    
Moisture  
Dew Point 62 °F    
Average Humidity 71    
Maximum Humidity 88    
Minimum Humidity 54    
Precipitation  
Precipitation 0.00 in 0.13 in 1.73 in (1993)
Month to date precipitation 4.65  
Year to date precipitation 20.22  
Snow  
Snow 0.00 in - - ()
Month to date snowfall  
Since 1 July snowfall  
Snow Depth -    
Sea Level Pressure  
Sea Level Pressure 30.15 in    
Wind  
Wind Speed 10 mph (East)    
Max Wind Speed 17 mph    
Max Gust Speed 24 mph    
Visibility 10 miles    
Events      
T = Trace of Precipitation, MM = Missing Value Source: NWS Daily Summary

Daily Weather History Graph

Daily Weather History Graph

Search for Another Location

Airport:

Trip Planner

Search our weather history database for the weather conditions in past years. The results will help you decide how hot, cold, wet, or windy it might be!

Date:

Astronomy

May. 24, 2013 Rise Set
Actual Time 6:12 AM CDT 8:20 PM CDT
Civil Twilight 5:44 AM CDT 8:48 PM CDT
Nautical Twilight 5:09 AM CDT 9:23 PM CDT
Astronomical Twilight 4:32 AM CDT 10:00 PM CDT
Moon 8:04 PM CDT (5/24) 5:43 AM CDT (5/24)
Length of Visible Light 15h 04m
Length of Day
14h 07m
Full, 100% of the Moon is Illuminated
May 24
Full
May 24
Full
May 31
Last Quarter
Jun 8
New
Jun 16
First Quarter

Hourly Weather History & Observations

Time (CDT) Temp. Heat Index Dew Point Humidity Pressure Visibility Wind Dir Wind Speed Gust Speed Precip Events Conditions
12:15 AM 69.8 °F - 66.2 °F 88% 30.07 in 7.0 mi ENE 8.1 mph - N/A   Clear
12:35 AM 69.8 °F - 66.2 °F 88% 30.07 in 7.0 mi East 6.9 mph - N/A   Clear
12:55 AM 69.8 °F - 64.4 °F 83% 30.07 in 7.0 mi East 6.9 mph - N/A   Clear
1:15 AM 68.0 °F - 64.4 °F 88% 30.07 in 7.0 mi East 5.8 mph - N/A   Clear
1:35 AM 68.0 °F - 64.4 °F 88% 30.07 in 7.0 mi East 8.1 mph - N/A   Clear
1:55 AM 68.0 °F - 64.4 °F 88% 30.07 in 7.0 mi East 6.9 mph - N/A   Clear
2:15 AM 68.0 °F - 64.4 °F 88% 30.07 in 7.0 mi ENE 8.1 mph - N/A   Scattered Clouds
2:35 AM 68.0 °F - 64.4 °F 88% 30.07 in 7.0 mi ENE 9.2 mph - N/A   Mostly Cloudy
2:55 AM 68.0 °F - 64.4 °F 88% 30.07 in 7.0 mi East 9.2 mph - N/A   Scattered Clouds
3:15 AM 68.0 °F - 62.6 °F 83% 30.08 in 10.0 mi ENE 6.9 mph - N/A   Clear
3:35 AM 68.0 °F - 62.6 °F 83% 30.07 in 10.0 mi ENE 9.2 mph - N/A   Scattered Clouds
3:55 AM 66.2 °F - 62.6 °F 88% 30.08 in 10.0 mi ENE 8.1 mph - N/A   Clear
4:15 AM 66.2 °F - 62.6 °F 88% 30.10 in 10.0 mi ENE 9.2 mph - N/A   Clear
4:35 AM 68.0 °F - 62.6 °F 83% 30.11 in 10.0 mi East 6.9 mph - N/A   Scattered Clouds
4:55 AM 68.0 °F - 62.6 °F 83% 30.12 in 10.0 mi East 9.2 mph - N/A   Scattered Clouds
5:15 AM 66.2 °F - 60.8 °F 83% 30.12 in 10.0 mi ENE 10.4 mph - N/A   Clear
5:35 AM 66.2 °F - 60.8 °F 83% 30.13 in 10.0 mi ENE 10.4 mph - N/A   Clear
5:55 AM 66.2 °F - 60.8 °F 83% 30.13 in 10.0 mi East 11.5 mph - N/A   Scattered Clouds
6:15 AM 66.2 °F - 60.8 °F 83% 30.14 in 10.0 mi East 13.8 mph - N/A   Mostly Cloudy
6:35 AM 66.2 °F - 60.8 °F 83% 30.15 in 10.0 mi East 13.8 mph 19.6 mph N/A   Scattered Clouds
6:55 AM 66.2 °F - 60.8 °F 83% 30.16 in 10.0 mi East 11.5 mph 18.4 mph N/A   Clear
7:15 AM 66.2 °F - 60.8 °F 83% 30.16 in 10.0 mi East 13.8 mph 19.6 mph N/A   Clear
7:35 AM 66.2 °F - 60.8 °F 83% 30.17 in 10.0 mi East 17.3 mph 24.2 mph N/A   Clear
7:55 AM 68.0 °F - 59.0 °F 73% 30.17 in 10.0 mi East 17.3 mph 24.2 mph N/A   Clear
8:15 AM 68.0 °F - 59.0 °F 73% 30.18 in 10.0 mi East 17.3 mph 23.0 mph N/A   Clear
8:35 AM 68.0 °F - 59.0 °F 73% 30.19 in 10.0 mi East 16.1 mph 21.9 mph N/A   Clear
8:55 AM 69.8 °F - 59.0 °F 68% 30.20 in 10.0 mi East 15.0 mph 18.4 mph N/A   Clear
9:15 AM 69.8 °F - 59.0 °F 68% 30.22 in 10.0 mi East 13.8 mph 19.6 mph N/A   Clear
9:35 AM 71.6 °F - 59.0 °F 64% 30.22 in 10.0 mi East 9.2 mph - N/A   Clear
9:55 AM 71.6 °F - 59.0 °F 64% 30.21 in 10.0 mi East 12.7 mph 17.3 mph N/A   Clear
10:15 AM 71.6 °F - 59.0 °F 64% 30.21 in 10.0 mi East 11.5 mph 20.7 mph N/A   Clear
10:35 AM 73.4 °F - 59.0 °F 61% 30.21 in 10.0 mi East 10.4 mph 19.6 mph N/A   Clear
10:55 AM 73.4 °F - 60.8 °F 65% 30.21 in 10.0 mi East 12.7 mph 17.3 mph N/A   Clear
11:15 AM 75.2 °F - 60.8 °F 61% 30.21 in 10.0 mi East 11.5 mph 16.1 mph N/A   Clear
11:35 AM 75.2 °F - 60.8 °F 61% 30.22 in 10.0 mi East 11.5 mph 17.3 mph N/A   Clear
11:55 AM 77.0 °F - 60.8 °F 57% 30.22 in 10.0 mi East 11.5 mph - N/A   Clear
12:15 PM 77.0 °F - 60.8 °F 57% 30.21 in 10.0 mi ESE 16.1 mph - N/A   Clear
12:35 PM 77.0 °F - 62.6 °F 61% 30.21 in 10.0 mi East 11.5 mph - N/A   Clear
12:55 PM 78.8 °F - 62.6 °F 57% 30.21 in 10.0 mi ESE 9.2 mph - N/A   Clear
1:15 PM 78.8 °F - 62.6 °F 57% 30.21 in 10.0 mi East 9.2 mph 17.3 mph N/A   Clear
1:35 PM 78.8 °F - 62.6 °F 57% 30.20 in 10.0 mi East 8.1 mph - N/A   Clear
1:55 PM 78.8 °F - 62.6 °F 57% 30.19 in 10.0 mi East 9.2 mph - N/A   Clear
2:15 PM 80.6 °F 81.8 °F 62.6 °F 54% 30.20 in 10.0 mi ESE 12.7 mph 16.1 mph N/A   Clear
2:35 PM 80.6 °F 81.8 °F 62.6 °F 54% 30.19 in 10.0 mi East 10.4 mph 18.4 mph N/A   Clear
2:55 PM 80.6 °F 81.8 °F 62.6 °F 54% 30.18 in 10.0 mi ESE 9.2 mph 18.4 mph N/A   Clear
3:15 PM 80.6 °F 82.3 °F 64.4 °F 58% 30.17 in 10.0 mi East 12.7 mph - N/A   Clear
3:35 PM 80.6 °F 82.3 °F 64.4 °F 58% 30.17 in 10.0 mi East 12.7 mph 19.6 mph N/A   Clear
3:55 PM 80.6 °F 82.3 °F 64.4 °F 58% 30.16 in 10.0 mi East 12.7 mph 18.4 mph N/A   Clear
4:15 PM 80.6 °F 82.3 °F 64.4 °F 58% 30.15 in 10.0 mi East 10.4 mph 16.1 mph N/A   Clear
4:35 PM 80.6 °F 82.3 °F 64.4 °F 58% 30.15 in 10.0 mi ESE 11.5 mph 16.1 mph N/A   Clear
4:55 PM 80.6 °F 82.3 °F 64.4 °F 58% 30.15 in 10.0 mi ESE 10.4 mph - N/A   Clear
5:15 PM 80.6 °F 81.8 °F 62.6 °F 54% 30.15 in 10.0 mi ESE 12.7 mph - N/A   Scattered Clouds
5:35 PM 78.8 °F - 64.4 °F 61% 30.15 in 10.0 mi ESE 8.1 mph - N/A   Scattered Clouds
5:55 PM 78.8 °F - 62.6 °F 57% 30.14 in 10.0 mi East 11.5 mph - N/A   Clear
6:15 PM 77.0 °F - 62.6 °F 61% 30.14 in 10.0 mi East 11.5 mph - N/A   Clear
6:35 PM 77.0 °F - 62.6 °F 61% 30.13 in 10.0 mi East 10.4 mph 16.1 mph N/A   Clear
6:55 PM 75.2 °F - 62.6 °F 65% 30.13 in 10.0 mi East 11.5 mph - N/A   Clear
7:15 PM 75.2 °F - 62.6 °F 65% 30.13 in 10.0 mi East 8.1 mph - N/A   Clear
7:35 PM 73.4 °F - 62.6 °F 69% 30.14 in 10.0 mi East 9.2 mph - N/A   Clear
7:55 PM 73.4 °F - 62.6 °F 69% 30.14 in 10.0 mi East 8.1 mph - N/A   Clear
8:15 PM 71.6 °F - 62.6 °F 73% 30.15 in 10.0 mi East 8.1 mph - N/A   Clear
8:35 PM 71.6 °F - 62.6 °F 73% 30.15 in 10.0 mi East 8.1 mph - N/A   Clear
8:55 PM 71.6 °F - 62.6 °F 73% 30.16 in 10.0 mi East 8.1 mph - N/A   Clear
9:15 PM 71.6 °F - 62.6 °F 73% 30.17 in 10.0 mi East 6.9 mph - N/A   Clear
9:35 PM 69.8 °F - 62.6 °F 78% 30.17 in 10.0 mi East 6.9 mph - N/A   Clear
9:55 PM 69.8 °F - 62.6 °F 78% 30.18 in 10.0 mi East 5.8 mph - N/A   Clear
10:15 PM 69.8 °F - 62.6 °F 78% 30.18 in 10.0 mi East 8.1 mph - N/A   Clear
10:35 PM 69.8 °F - 62.6 °F 78% 30.19 in 10.0 mi East 9.2 mph - N/A   Clear
10:55 PM 69.8 °F - 60.8 °F 73% 30.19 in 10.0 mi East 9.2 mph - N/A   Clear
11:15 PM 68.0 °F - 60.8 °F 78% 30.19 in 10.0 mi East 9.2 mph - N/A   Clear
11:35 PM 68.0 °F - 60.8 °F 78% 30.19 in 10.0 mi East 9.2 mph - N/A   Clear
11:55 PM 68.0 °F - 59.0 °F 73% 30.20 in 10.0 mi East 9.2 mph - N/A   Clear